Time,TemperatureF,DewpointF,PressureIn,WindDirection,WindDirectionDegrees,WindSpeedMPH,WindSpeedGustMPH,Humidity,HourlyPrecipIn,Conditions,Clouds,dailyrainin,SoftwareType,DateUTC
2013-01-17 00:00:00,42.8,40.3,28.04,West,270,2.0,4.0,91,0.04,,,0.26,meteohub,2013-01-17 05:00:00,
2013-01-17 00:01:00,42.8,40.1,28.04,NW,315,2.0,4.0,90,0.02,,,0.26,meteohub,2013-01-17 05:01:00,
2013-01-17 00:03:00,43.0,40.3,28.04,North,0,2.0,4.0,90,0.02,,,0.26,meteohub,2013-01-17 05:03:00,
2013-01-17 00:04:00,43.0,40.3,28.03,NW,315,3.0,4.0,90,0.02,,,0.26,meteohub,2013-01-17 05:04:00,
2013-01-17 00:10:00,43.0,40.3,28.04,NW,315,2.0,4.0,90,0.04,,,0.00,meteohub,2013-01-17 05:10:00,
2013-01-17 00:15:00,43.0,40.3,28.04,SW,225,3.0,4.0,90,0.04,,,0.01,meteohub,2013-01-17 05:15:00,
2013-01-17 00:20:00,43.0,40.3,28.04,NW,315,6.0,6.0,90,0.04,,,0.01,meteohub,2013-01-17 05:20:00,
2013-01-17 00:25:00,43.0,40.3,28.03,SW,225,2.0,6.0,90,0.04,,,0.01,meteohub,2013-01-17 05:25:00,
2013-01-17 00:30:00,43.0,39.9,28.03,NW,315,0.0,6.0,89,0.04,,,0.01,meteohub,2013-01-17 05:30:00,
2013-01-17 00:35:00,43.0,39.9,28.02,NW,315,2.0,4.0,89,0.02,,,0.01,meteohub,2013-01-17 05:35:00,
2013-01-17 00:40:00,43.0,40.3,28.03,South,180,1.0,3.0,90,0.02,,,0.01,meteohub,2013-01-17 05:40:00,
2013-01-17 00:45:00,42.8,40.1,28.02,South,180,0.0,3.0,90,0.02,,,0.01,meteohub,2013-01-17 05:45:00,
2013-01-17 00:51:00,42.8,40.1,28.02,South,180,0.0,2.0,90,0.02,,,0.01,meteohub,2013-01-17 05:51:00,
2013-01-17 00:56:00,42.6,40.5,28.02,South,180,0.0,2.0,92,0.02,,,0.01,meteohub,2013-01-17 05:56:00,
2013-01-17 01:01:00,42.6,40.5,28.02,South,180,0.0,2.0,92,0.01,,,0.01,meteohub,2013-01-17 06:01:00,
2013-01-17 01:06:00,42.6,40.5,28.02,South,180,0.0,2.0,92,0.01,,,0.01,meteohub,2013-01-17 06:06:00,
2013-01-17 01:11:00,42.4,40.6,28.02,South,180,0.0,1.0,93,0.01,,,0.01,meteohub,2013-01-17 06:11:00,
2013-01-17 01:16:00,42.4,40.6,28.03,SW,225,2.0,0.0,93,0.00,,,0.01,meteohub,2013-01-17 06:16:00,
2013-01-17 01:21:00,42.6,40.8,28.03,SW,225,1.0,2.0,93,0.01,,,0.02,meteohub,2013-01-17 06:21:00,
2013-01-17 01:26:00,42.4,40.6,28.03,South,180,0.0,2.0,93,0.01,,,0.02,meteohub,2013-01-17 06:26:00,
2013-01-17 01:32:00,42.4,40.6,28.03,South,180,0.0,2.0,93,0.01,,,0.02,meteohub,2013-01-17 06:32:00,
2013-01-17 01:37:00,42.4,40.6,28.04,West,270,2.0,2.0,93,0.01,,,0.02,meteohub,2013-01-17 06:37:00,
2013-01-17 01:42:00,42.4,40.8,28.03,West,270,0.0,2.0,94,0.01,,,0.02,meteohub,2013-01-17 06:42:00,
2013-01-17 01:47:00,42.4,40.8,28.04,South,180,0.0,2.0,94,0.01,,,0.02,meteohub,2013-01-17 06:47:00,
2013-01-17 01:52:00,42.4,40.8,28.04,SW,225,0.0,2.0,94,0.01,,,0.02,meteohub,2013-01-17 06:52:00,
2013-01-17 01:57:00,42.4,40.8,28.03,South,180,2.0,2.0,94,0.01,,,0.02,meteohub,2013-01-17 06:57:00,
2013-01-17 02:02:00,42.4,40.8,28.03,South,180,0.0,2.0,94,0.01,,,0.02,meteohub,2013-01-17 07:02:00,
2013-01-17 02:07:00,42.4,40.8,28.03,South,180,0.0,2.0,94,0.01,,,0.02,meteohub,2013-01-17 07:07:00,
2013-01-17 02:12:00,42.4,40.8,28.04,West,270,3.0,3.0,94,0.01,,,0.02,meteohub,2013-01-17 07:12:00,
2013-01-17 02:17:00,42.6,41.0,28.04,West,270,3.0,3.0,94,0.01,,,0.02,meteohub,2013-01-17 07:17:00,
2013-01-17 02:22:00,42.8,41.0,28.04,West,270,2.0,3.0,93,0.00,,,0.02,meteohub,2013-01-17 07:22:00,
2013-01-17 02:27:00,42.8,41.0,28.04,SW,225,2.0,3.0,93,0.00,,,0.02,meteohub,2013-01-17 07:27:00,
2013-01-17 02:32:00,43.0,41.2,28.04,West,270,2.0,3.0,93,0.00,,,0.02,meteohub,2013-01-17 07:32:00,
2013-01-17 02:37:00,43.2,41.4,28.04,SW,225,2.0,2.0,93,0.00,,,0.02,meteohub,2013-01-17 07:37:00,
2013-01-17 02:42:00,43.2,41.4,28.04,North,0,1.0,2.0,93,0.00,,,0.02,meteohub,2013-01-17 07:42:00,
2013-01-17 02:47:00,43.2,41.4,28.04,NE,45,0.0,2.0,93,0.00,,,0.02,meteohub,2013-01-17 07:47:00,
2013-01-17 02:53:00,43.2,41.4,28.04,NE,45,0.0,2.0,93,0.00,,,0.02,meteohub,2013-01-17 07:53:00,
2013-01-17 02:58:00,43.2,41.4,28.04,West,270,2.0,2.0,93,0.00,,,0.02,meteohub,2013-01-17 07:58:00,
2013-01-17 03:03:00,43.0,41.2,28.05,NW,315,2.0,2.0,93,0.00,,,0.02,meteohub,2013-01-17 08:03:00,
2013-01-17 03:08:00,43.0,41.2,28.05,NW,315,1.0,2.0,93,0.00,,,0.02,meteohub,2013-01-17 08:08:00,
2013-01-17 03:13:00,43.0,41.2,28.05,NW,315,2.0,2.0,93,0.00,,,0.02,meteohub,2013-01-17 08:13:00,
2013-01-17 03:18:00,43.0,41.2,28.05,West,270,2.0,2.0,93,0.00,,,0.02,meteohub,2013-01-17 08:18:00,
2013-01-17 03:23:00,43.0,40.8,28.05,NW,315,4.0,4.0,92,0.00,,,0.02,meteohub,2013-01-17 08:23:00,
2013-01-17 03:28:00,43.0,40.8,28.05,WNW,293,4.0,4.0,92,0.00,,,0.02,meteohub,2013-01-17 08:28:00,
2013-01-17 03:34:00,42.8,40.6,28.05,NW,315,3.0,7.0,92,0.00,,,0.02,meteohub,2013-01-17 08:34:00,
2013-01-17 03:39:00,42.8,40.6,28.05,North,0,2.0,7.0,92,0.00,,,0.02,meteohub,2013-01-17 08:39:00,
2013-01-17 03:44:00,42.6,40.5,28.05,NW,315,6.0,7.0,92,0.00,,,0.02,meteohub,2013-01-17 08:44:00,
2013-01-17 03:49:00,42.4,39.9,28.05,NW,315,4.0,8.0,91,0.00,,,0.02,meteohub,2013-01-17 08:49:00,
2013-01-17 03:54:00,42.3,39.6,28.05,North,0,5.0,10.0,90,0.00,,,0.02,meteohub,2013-01-17 08:54:00,
2013-01-17 03:59:00,42.1,39.0,28.06,North,0,5.0,10.0,89,0.00,,,0.02,meteohub,2013-01-17 08:59:00,
2013-01-17 04:04:00,42.1,39.0,28.05,NW,315,8.0,12.0,89,0.00,,,0.02,meteohub,2013-01-17 09:04:00,
2013-01-17 04:10:00,41.9,38.8,28.04,NW,315,5.0,12.0,89,0.00,,,0.02,meteohub,2013-01-17 09:10:00,
2013-01-17 04:15:00,41.7,38.5,28.06,NW,315,6.0,12.0,88,0.00,,,0.02,meteohub,2013-01-17 09:15:00,
2013-01-17 04:20:00,41.7,38.5,28.05,NW,315,8.0,11.0,88,0.00,,,0.02,meteohub,2013-01-17 09:20:00,
2013-01-17 04:25:00,41.5,38.3,28.04,WNW,293,7.0,8.0,88,0.01,,,0.04,meteohub,2013-01-17 09:25:00,
2013-01-17 04:30:00,41.4,38.1,28.04,NW,315,7.0,8.0,88,0.01,,,0.04,meteohub,2013-01-17 09:30:00,
2013-01-17 04:35:00,41.4,38.1,28.04,West,270,4.0,9.0,88,0.01,,,0.04,meteohub,2013-01-17 09:35:00,
2013-01-17 04:40:00,41.2,37.9,28.04,West,270,6.0,9.0,88,0.02,,,0.05,meteohub,2013-01-17 09:40:00,
2013-01-17 04:45:00,41.0,37.8,28.05,NW,315,4.0,9.0,88,0.02,,,0.05,meteohub,2013-01-17 09:45:00,
2013-01-17 04:51:00,41.0,37.8,28.05,NW,315,4.0,8.0,88,0.02,,,0.05,meteohub,2013-01-17 09:51:00,
2013-01-17 04:56:00,41.0,37.8,28.04,NNW,338,3.0,7.0,88,0.02,,,0.05,meteohub,2013-01-17 09:56:00,
2013-01-17 05:01:00,40.8,37.8,28.03,North,0,3.0,7.0,89,0.04,,,0.06,meteohub,2013-01-17 10:01:00,
2013-01-17 05:06:00,40.8,37.8,28.04,North,0,3.0,7.0,89,0.04,,,0.06,meteohub,2013-01-17 10:06:00,
2013-01-17 05:11:00,40.6,37.6,28.04,NW,315,2.0,5.0,89,0.04,,,0.06,meteohub,2013-01-17 10:11:00,
2013-01-17 05:16:00,40.5,37.4,28.05,North,0,7.0,7.0,89,0.04,,,0.06,meteohub,2013-01-17 10:16:00,
2013-01-17 05:21:00,40.6,37.6,28.05,North,0,3.0,8.0,89,0.02,,,0.06,meteohub,2013-01-17 10:21:00,
2013-01-17 05:27:00,40.5,37.8,28.04,NE,45,2.0,8.0,90,0.02,,,0.06,meteohub,2013-01-17 10:27:00,
2013-01-17 05:32:00,40.5,37.8,28.04,NE,45,4.0,7.0,90,0.02,,,0.06,meteohub,2013-01-17 10:32:00,
2013-01-17 05:37:00,40.3,37.6,28.03,NE,45,4.0,5.0,90,0.04,,,0.07,meteohub,2013-01-17 10:37:00,
2013-01-17 05:42:00,40.1,37.4,28.04,NW,315,2.0,6.0,90,0.02,,,0.07,meteohub,2013-01-17 10:42:00,
2013-01-17 05:47:00,39.9,37.2,28.04,NW,315,4.0,6.0,90,0.02,,,0.07,meteohub,2013-01-17 10:47:00,
2013-01-17 05:52:00,39.7,36.7,28.03,North,0,4.0,6.0,89,0.04,,,0.08,meteohub,2013-01-17 10:52:00,
2013-01-17 05:57:00,39.6,36.5,28.03,NW,315,3.0,6.0,89,0.04,,,0.08,meteohub,2013-01-17 10:57:00,
2013-01-17 06:03:00,39.4,36.5,28.04,NW,315,4.0,6.0,89,0.02,,,0.08,meteohub,2013-01-17 11:03:00,
2013-01-17 06:08:00,39.2,36.3,28.05,NW,315,3.0,6.0,89,0.04,,,0.09,meteohub,2013-01-17 11:08:00,
2013-01-17 06:13:00,39.0,36.1,28.05,North,0,5.0,6.0,89,0.04,,,0.09,meteohub,2013-01-17 11:13:00,
2013-01-17 06:18:00,38.8,36.0,28.05,West,270,2.0,7.0,89,0.04,,,0.09,meteohub,2013-01-17 11:18:00,
2013-01-17 06:23:00,38.7,35.4,28.06,NW,315,6.0,7.0,88,0.04,,,0.09,meteohub,2013-01-17 11:23:00,
2013-01-17 06:28:00,38.7,34.9,28.07,NW,315,4.0,6.0,86,0.04,,,0.09,meteohub,2013-01-17 11:28:00,
2013-01-17 06:34:00,38.5,34.3,28.07,North,0,4.0,7.0,85,0.04,,,0.09,meteohub,2013-01-17 11:34:00,
2013-01-17 06:39:00,38.3,33.6,28.07,North,0,3.0,7.0,83,0.02,,,0.09,meteohub,2013-01-17 11:39:00,
2013-01-17 06:44:00,38.3,32.9,28.07,SW,225,9.0,9.0,81,0.04,,,0.11,meteohub,2013-01-17 11:44:00,
2013-01-17 06:49:00,38.1,32.5,28.06,NW,315,2.0,9.0,80,0.04,,,0.11,meteohub,2013-01-17 11:49:00,
2013-01-17 06:54:00,37.9,32.4,28.06,NW,315,4.0,9.0,80,0.02,,,0.11,meteohub,2013-01-17 11:54:00,
2013-01-17 06:59:00,37.6,32.0,28.06,North,0,4.0,9.0,80,0.02,,,0.11,meteohub,2013-01-17 11:59:00,
2013-01-17 07:05:00,37.6,32.0,28.06,North,0,4.0,5.0,80,0.02,,,0.11,meteohub,2013-01-17 12:05:00,
2013-01-17 07:10:00,37.0,30.6,28.06,West,270,2.0,5.0,77,0.01,,,0.11,meteohub,2013-01-17 12:10:00,
2013-01-17 07:15:00,37.0,30.6,28.06,NW,315,1.0,4.0,77,0.01,,,0.11,meteohub,2013-01-17 12:15:00,
2013-01-17 07:20:00,36.9,30.4,28.06,West,270,1.0,4.0,77,0.01,,,0.11,meteohub,2013-01-17 12:20:00,
2013-01-17 07:25:00,36.9,30.4,28.07,SW,225,2.0,4.0,77,0.01,,,0.11,meteohub,2013-01-17 12:25:00,
2013-01-17 07:30:00,36.7,30.6,28.07,SW,225,2.0,3.0,78,0.01,,,0.11,meteohub,2013-01-17 12:30:00,
2013-01-17 07:35:00,36.7,30.6,28.07,West,270,2.0,4.0,78,0.00,,,0.11,meteohub,2013-01-17 12:35:00,
2013-01-17 07:40:00,36.7,30.2,28.07,NW,315,0.0,4.0,77,0.00,,,0.11,meteohub,2013-01-17 12:40:00,
2013-01-17 07:46:00,36.9,30.4,28.07,West,270,2.0,4.0,77,0.00,,,0.11,meteohub,2013-01-17 12:46:00,
2013-01-17 07:51:00,36.9,30.4,28.07,NW,315,4.0,4.0,77,0.00,,,0.11,meteohub,2013-01-17 12:51:00,
2013-01-17 07:56:00,37.0,30.2,28.07,West,270,5.0,6.0,76,0.00,,,0.11,meteohub,2013-01-17 12:56:00,
2013-01-17 08:01:00,37.2,29.3,28.07,NW,315,4.0,6.0,73,0.00,,,0.11,meteohub,2013-01-17 13:01:00,
2013-01-17 08:06:00,37.4,30.6,28.07,NW,315,2.0,6.0,76,0.00,,,0.11,meteohub,2013-01-17 13:06:00,
2013-01-17 08:11:00,37.4,30.2,28.06,NW,315,3.0,5.0,75,0.01,,,0.12,meteohub,2013-01-17 13:11:00,
2013-01-17 08:16:00,37.4,30.2,28.07,North,0,3.0,5.0,75,0.01,,,0.12,meteohub,2013-01-17 13:16:00,
2013-01-17 08:21:00,37.4,30.2,28.07,NW,315,2.0,5.0,75,0.01,,,0.12,meteohub,2013-01-17 13:21:00,
2013-01-17 08:26:00,37.2,29.3,28.06,North,0,0.0,4.0,73,0.01,,,0.12,meteohub,2013-01-17 13:26:00,
2013-01-17 08:32:00,37.0,29.5,28.06,NE,45,2.0,4.0,74,0.01,,,0.12,meteohub,2013-01-17 13:32:00,
2013-01-17 08:37:00,37.0,29.1,28.07,NW,315,4.0,4.0,73,0.01,,,0.12,meteohub,2013-01-17 13:37:00,
2013-01-17 08:42:00,37.0,29.1,28.07,NW,315,5.0,5.0,73,0.01,,,0.12,meteohub,2013-01-17 13:42:00,
2013-01-17 08:47:00,36.9,28.8,28.06,West,270,6.0,6.0,72,0.02,,,0.13,meteohub,2013-01-17 13:47:00,
2013-01-17 08:52:00,36.5,28.4,28.07,West,270,0.0,6.0,72,0.02,,,0.13,meteohub,2013-01-17 13:52:00,
2013-01-17 08:57:00,36.3,28.6,28.07,West,270,1.0,6.0,73,0.02,,,0.13,meteohub,2013-01-17 13:57:00,
2013-01-17 09:02:00,36.3,28.8,28.08,SW,225,0.0,6.0,74,0.04,,,0.14,meteohub,2013-01-17 14:02:00,
2013-01-17 09:07:00,36.0,29.5,28.07,South,180,0.0,2.0,77,0.04,,,0.14,meteohub,2013-01-17 14:07:00,
2013-01-17 09:12:00,36.0,29.8,28.07,NE,45,2.0,2.0,78,0.02,,,0.14,meteohub,2013-01-17 14:12:00,
2013-01-17 09:17:00,36.1,30.0,28.07,WNW,293,2.0,2.0,78,0.02,,,0.14,meteohub,2013-01-17 14:17:00,
2013-01-17 09:23:00,36.1,29.7,28.07,NE,45,2.0,3.0,77,0.02,,,0.14,meteohub,2013-01-17 14:23:00,
2013-01-17 09:28:00,36.1,29.3,28.08,NW,315,2.0,3.0,76,0.02,,,0.14,meteohub,2013-01-17 14:28:00,
2013-01-17 09:33:00,36.1,29.7,28.08,NW,315,2.0,3.0,77,0.04,,,0.15,meteohub,2013-01-17 14:33:00,
2013-01-17 09:38:00,36.0,29.5,28.08,East,90,3.0,3.0,77,0.04,,,0.15,meteohub,2013-01-17 14:38:00,
2013-01-17 09:43:00,36.0,29.8,28.09,West,270,1.0,3.0,78,0.02,,,0.15,meteohub,2013-01-17 14:43:00,
2013-01-17 09:48:00,36.0,29.8,28.09,North,0,2.0,3.0,78,0.04,,,0.17,meteohub,2013-01-17 14:48:00,
2013-01-17 09:53:00,35.8,29.8,28.11,West,270,3.0,3.0,79,0.05,,,0.18,meteohub,2013-01-17 14:53:00,
2013-01-17 09:58:00,35.6,29.7,28.10,NW,315,2.0,3.0,79,0.05,,,0.19,meteohub,2013-01-17 14:58:00,
2013-01-17 10:04:00,35.6,29.7,28.09,West,270,2.0,4.0,79,0.06,,,0.20,meteohub,2013-01-17 15:04:00,
2013-01-17 10:09:00,35.4,29.8,28.09,North,0,1.0,4.0,80,0.07,,,0.21,meteohub,2013-01-17 15:09:00,
2013-01-17 10:14:00,35.4,29.8,28.09,NE,45,2.0,4.0,80,0.08,,,0.22,meteohub,2013-01-17 15:14:00,
2013-01-17 10:19:00,35.2,29.7,28.07,North,0,3.0,4.0,80,0.08,,,0.22,meteohub,2013-01-17 15:19:00,
2013-01-17 10:24:00,35.1,29.1,28.06,East,90,1.0,4.0,79,0.09,,,0.24,meteohub,2013-01-17 15:24:00,
2013-01-17 10:29:00,35.1,29.1,28.07,SW,225,0.0,4.0,79,0.11,,,0.26,meteohub,2013-01-17 15:29:00,
2013-01-17 10:34:00,34.9,29.3,28.07,South,180,0.0,4.0,80,0.12,,,0.27,meteohub,2013-01-17 15:34:00,
2013-01-17 10:39:00,34.9,30.0,28.07,NW,315,0.0,4.0,82,0.13,,,0.28,meteohub,2013-01-17 15:39:00,
2013-01-17 10:44:00,34.7,29.8,28.07,East,90,0.0,2.0,82,0.13,,,0.28,meteohub,2013-01-17 15:44:00,
2013-01-17 10:50:00,34.9,30.2,28.06,NE,45,1.0,1.0,83,0.11,,,0.28,meteohub,2013-01-17 15:50:00,
2013-01-17 10:55:00,34.9,30.2,28.06,South,180,2.0,2.0,83,0.12,,,0.30,meteohub,2013-01-17 15:55:00,
2013-01-17 11:00:00,34.9,30.6,28.07,West,270,0.0,2.0,84,0.12,,,0.32,meteohub,2013-01-17 16:00:00,
2013-01-17 11:05:00,34.9,30.6,28.07,West,270,2.0,2.0,84,0.11,,,0.32,meteohub,2013-01-17 16:05:00,
2013-01-17 19:46:00,32.5,30.6,28.05,SW,225,0.0,-999.0,92,-99.99,,,0.32,meteohub,2013-01-18 00:46:00,
2013-01-17 19:51:00,32.5,30.6,28.04,West,270,0.0,0.0,92,0.00,,,0.66,meteohub,2013-01-18 00:51:00,
2013-01-17 19:59:00,32.5,30.7,28.03,North,0,0.0,0.0,93,0.00,,,0.66,meteohub,2013-01-18 00:59:00,
2013-01-17 20:04:00,32.5,30.7,28.05,West,270,0.0,0.0,93,0.00,,,0.66,meteohub,2013-01-18 01:04:00,
2013-01-17 20:09:00,32.5,30.7,28.07,West,270,0.0,0.0,93,0.00,,,0.66,meteohub,2013-01-18 01:09:00,
2013-01-17 20:14:00,32.7,30.9,28.07,SW,225,0.0,0.0,93,0.00,,,0.66,meteohub,2013-01-18 01:14:00,
2013-01-17 20:19:00,32.7,30.9,28.06,West,270,0.0,0.0,93,0.00,,,0.66,meteohub,2013-01-18 01:19:00,
2013-01-17 20:24:00,32.7,30.9,28.05,West,270,0.0,0.0,93,0.00,,,0.66,meteohub,2013-01-18 01:24:00,
2013-01-17 20:30:00,32.7,30.9,28.06,West,270,0.0,0.0,93,0.00,,,0.66,meteohub,2013-01-18 01:30:00,
2013-01-17 20:35:00,32.7,30.9,28.08,North,0,0.0,0.0,93,0.00,,,0.66,meteohub,2013-01-18 01:35:00,
2013-01-17 20:40:00,32.7,30.9,28.06,NW,315,0.0,0.0,93,0.00,,,0.66,meteohub,2013-01-18 01:40:00,
2013-01-17 20:45:00,32.7,30.9,28.06,NW,315,0.0,0.0,93,0.00,,,0.66,meteohub,2013-01-18 01:45:00,
2013-01-17 20:50:00,32.5,30.7,28.04,NW,315,0.0,0.0,93,0.00,,,0.66,meteohub,2013-01-18 01:50:00,
2013-01-17 20:55:00,32.5,30.7,28.03,NW,315,0.0,0.0,93,0.00,,,0.66,meteohub,2013-01-18 01:55:00,
2013-01-17 21:01:00,32.7,30.9,28.04,NW,315,0.0,0.0,93,0.00,,,0.66,meteohub,2013-01-18 02:01:00,
2013-01-17 21:06:00,32.7,30.9,28.04,NW,315,0.0,0.0,93,0.00,,,0.66,meteohub,2013-01-18 02:06:00,
2013-01-17 21:11:00,32.9,31.1,28.03,NW,315,0.0,0.0,93,0.00,,,0.66,meteohub,2013-01-18 02:11:00,
2013-01-17 21:16:00,32.9,31.1,28.01,South,180,0.0,0.0,93,0.00,,,0.66,meteohub,2013-01-18 02:16:00,
2013-01-17 21:21:00,32.9,31.1,28.03,North,0,0.0,0.0,93,0.00,,,0.66,meteohub,2013-01-18 02:21:00,
2013-01-17 21:26:00,33.1,31.3,28.06,West,270,1.0,0.0,93,0.00,,,0.66,meteohub,2013-01-18 02:26:00,
2013-01-17 21:31:00,33.3,31.5,28.08,NW,315,0.0,1.0,93,0.00,,,0.66,meteohub,2013-01-18 02:31:00,
2013-01-17 21:36:00,33.4,31.6,28.08,West,270,0.0,1.0,93,0.00,,,0.66,meteohub,2013-01-18 02:36:00,
2013-01-17 21:42:00,33.4,31.6,28.10,WNW,293,2.0,4.0,93,0.00,,,0.66,meteohub,2013-01-18 02:42:00,
2013-01-17 21:47:00,33.4,31.3,28.10,NW,315,8.0,8.0,92,0.00,,,0.66,meteohub,2013-01-18 02:47:00,
2013-01-17 21:52:00,33.4,31.1,28.10,NW,315,8.0,8.0,91,0.00,,,0.66,meteohub,2013-01-18 02:52:00,
2013-01-17 21:57:00,33.6,30.9,28.11,North,0,7.0,10.0,90,0.00,,,0.66,meteohub,2013-01-18 02:57:00,
2013-01-17 22:02:00,33.4,30.6,28.11,NNW,338,5.0,10.0,89,0.00,,,0.66,meteohub,2013-01-18 03:02:00,
2013-01-17 22:07:00,33.4,30.6,28.11,North,0,5.0,10.0,89,0.00,,,0.66,meteohub,2013-01-18 03:07:00,
2013-01-17 22:12:00,33.4,30.2,28.12,NW,315,0.0,8.0,88,0.00,,,0.66,meteohub,2013-01-18 03:12:00,
2013-01-17 22:17:00,33.4,30.2,28.12,NW,315,0.0,7.0,88,0.00,,,0.66,meteohub,2013-01-18 03:17:00,
2013-01-17 22:22:00,33.4,30.0,28.13,West,270,0.0,5.0,87,0.00,,,0.66,meteohub,2013-01-18 03:22:00,
2013-01-17 22:27:00,33.4,29.7,28.13,West,270,0.0,1.0,86,0.00,,,0.66,meteohub,2013-01-18 03:27:00,
2013-01-17 22:32:00,33.4,29.5,28.14,NW,315,0.0,1.0,85,0.00,,,0.66,meteohub,2013-01-18 03:32:00,
2013-01-17 22:37:00,33.4,29.5,28.14,NW,315,0.0,0.0,85,0.00,,,0.66,meteohub,2013-01-18 03:37:00,
2013-01-17 22:42:00,33.3,29.3,28.14,NW,315,0.0,0.0,85,0.00,,,0.66,meteohub,2013-01-18 03:42:00,
2013-01-17 22:47:00,33.1,29.1,28.14,NW,315,0.0,0.0,85,0.00,,,0.66,meteohub,2013-01-18 03:47:00,
2013-01-17 22:52:00,32.7,28.4,28.15,NW,315,0.0,0.0,84,0.00,,,0.66,meteohub,2013-01-18 03:52:00,
2013-01-17 22:58:00,32.7,28.4,28.15,NW,315,0.0,0.0,84,0.00,,,0.66,meteohub,2013-01-18 03:58:00,
2013-01-17 23:03:00,32.7,28.4,28.15,NW,315,0.0,0.0,84,0.00,,,0.66,meteohub,2013-01-18 04:03:00,
2013-01-17 23:08:00,32.7,28.4,28.16,NW,315,0.0,0.0,84,0.00,,,0.66,meteohub,2013-01-18 04:08:00,
2013-01-17 23:13:00,32.4,27.9,28.17,NE,45,0.0,0.0,83,0.00,,,0.66,meteohub,2013-01-18 04:13:00,
2013-01-17 23:18:00,32.4,27.9,28.17,NW,315,0.0,0.0,83,0.00,,,0.66,meteohub,2013-01-18 04:18:00,
2013-01-17 23:23:00,32.2,27.3,28.17,NW,315,0.0,0.0,82,0.00,,,0.66,meteohub,2013-01-18 04:23:00,
2013-01-17 23:28:00,32.0,27.1,28.16,NW,315,0.0,0.0,82,0.00,,,0.66,meteohub,2013-01-18 04:28:00,
2013-01-17 23:33:00,31.8,27.0,28.17,NW,315,0.0,0.0,82,0.00,,,0.66,meteohub,2013-01-18 04:33:00,
2013-01-17 23:39:00,31.6,26.8,28.17,WNW,293,0.0,0.0,82,0.00,,,0.66,meteohub,2013-01-18 04:39:00,
2013-01-17 23:44:00,31.6,26.4,28.17,NW,315,0.0,0.0,81,0.00,,,0.66,meteohub,2013-01-18 04:44:00,
2013-01-17 23:49:00,31.6,26.4,28.18,NW,315,0.0,0.0,81,0.00,,,0.66,meteohub,2013-01-18 04:49:00,
2013-01-17 23:54:00,31.5,26.2,28.18,NW,315,0.0,0.0,81,0.00,,,0.66,meteohub,2013-01-18 04:54:00,
2013-01-17 23:59:00,31.3,26.1,28.18,NW,315,0.0,0.0,81,0.00,,,0.66,meteohub,2013-01-18 04:59:00,